Change the Weather History Date:

Wednesday, November 5, 2014

  Actual Average Record
Temperature  
Mean Temperature 64 °F 64 °F  
Max Temperature 78 °F 78 °F 92 °F (2009)
Min Temperature 50 °F 50 °F 27 °F (1935)
Degree Days  
Heating Degree Days 1 3  
Month to date heating degree days 18 14  
Since 1 July heating degree days 18 38  
Cooling Degree Days 0 2  
Month to date cooling degree days 11 12  
Year to date cooling degree days 3585 3131  
Growing Degree Days 14 (Base 50)    
Moisture  
Dew Point 35 °F    
Average Humidity 36    
Maximum Humidity 50    
Minimum Humidity 21    
Precipitation  
Precipitation 0.00 in 0.01 in 0.64 in (1995)
Month to date precipitation 0.00 0.09  
Year to date precipitation 8.02 10.18  
Sea Level Pressure  
Sea Level Pressure 30.03 in    
Wind  
Wind Speed 7 mph (ESE)    
Max Wind Speed 21 mph    
Max Gust Speed 26 mph    
Visibility 10 miles    
Events      
T = Trace of Precipitation, MM = Missing Value Source: NWS Daily Summary

Daily Weather History Graph

Daily Weather History Graph

Search for Another Location

Airport or City:

Trip Planner

Search our weather history database for the weather conditions in past years. The results will help you decide how hot, cold, wet, or windy it might be!

Date:

Astronomy

Nov. 05, 2014 Rise Set
Actual Time 6:44 AM MST 5:30 PM MST
Civil Twilight 6:18 AM MST 5:55 PM MST
Nautical Twilight 5:49 AM MST 6:24 PM MST
Astronomical Twilight 5:20 AM MST 6:53 PM MST
Moon 4:54 PM MST (11/5) 5:18 AM MST (11/5)
Length of Visible Light 11h 37m
Length of Day
10h 46m
Waxing Gibbous, 98% of the Moon is Illuminated
Nov 5
Waxing Gibbous
Nov 6
Full
Nov 14
Last Quarter
Nov 22
New
Nov 29
First Quarter

Hourly Weather History & Observations

Time (MST) Temp. Dew Point Humidity Pressure Visibility Wind Dir Wind Speed Gust Speed Precip Events Conditions
12:53 AM 53.1 °F 33.1 °F 47% 30.03 in 10.0 mi Calm Calm - N/A   Clear
1:53 AM 55.9 °F 33.1 °F 42% 30.02 in 10.0 mi Calm Calm - N/A   Clear
2:53 AM 60.1 °F 35.1 °F 39% 30.01 in 10.0 mi East 11.5 mph 19.6 mph N/A   Clear
3:53 AM 55.0 °F 34.0 °F 45% 30.00 in 10.0 mi Variable 5.8 mph - N/A   Clear
4:53 AM 57.9 °F 35.1 °F 42% 29.99 in 10.0 mi ESE 5.8 mph - N/A   Clear
5:53 AM 55.0 °F 36.0 °F 49% 30.01 in 10.0 mi Calm Calm - N/A   Clear
6:53 AM 53.1 °F 35.1 °F 50% 30.05 in 10.0 mi Calm Calm - N/A   Clear
7:53 AM 57.9 °F 37.0 °F 46% 30.05 in 10.0 mi Calm Calm - N/A   Clear
8:53 AM 64.0 °F 37.9 °F 38% 30.06 in 10.0 mi Calm Calm - N/A   Clear
9:53 AM 68.0 °F 37.0 °F 32% 30.06 in 10.0 mi South 4.6 mph - N/A   Clear
10:53 AM 71.1 °F 37.0 °F 29% 30.04 in 10.0 mi SE 13.8 mph 20.7 mph N/A   Clear
11:53 AM 73.0 °F 37.0 °F 27% 30.03 in 10.0 mi Variable 3.5 mph - N/A   Clear
12:53 PM 75.0 °F 36.0 °F 24% 30.01 in 10.0 mi Variable 4.6 mph - N/A   Clear
1:53 PM 75.9 °F 35.1 °F 23% 29.99 in 10.0 mi ESE 9.2 mph - N/A   Clear
2:53 PM 75.9 °F 34.0 °F 22% 29.97 in 10.0 mi Variable 4.6 mph - N/A   Clear
3:53 PM 75.9 °F 33.1 °F 21% 29.99 in 10.0 mi East 13.8 mph 19.6 mph N/A   Clear
4:53 PM 75.0 °F 34.0 °F 22% 30.00 in 10.0 mi East 10.4 mph - N/A   Clear
5:53 PM 73.0 °F 34.0 °F 24% 30.03 in 10.0 mi East 9.2 mph - N/A   Clear
6:53 PM 72.0 °F 32.0 °F 23% 30.06 in 10.0 mi ESE 12.7 mph - N/A   Clear
7:53 PM 69.1 °F 34.0 °F 27% 30.07 in 10.0 mi ESE 11.5 mph - N/A   Clear
8:53 PM 68.0 °F 34.0 °F 28% 30.09 in 10.0 mi SE 9.2 mph - N/A   Clear
9:53 PM 68.0 °F 36.0 °F 31% 30.10 in 10.0 mi SE 19.6 mph 25.3 mph N/A   Clear
10:53 PM 66.9 °F 35.1 °F 31% 30.09 in 10.0 mi ESE 16.1 mph 23.0 mph N/A   Clear
11:53 PM 64.9 °F 36.0 °F 34% 30.10 in 10.0 mi ESE 12.7 mph - N/A   Clear